User: anonymous   Login
Location: Camp Creek
(33.9000°N, 111.8167°W)
Time: 08:32:27
(UTC-07:00)
Language:

Cosmos 1656 - Orbit

View from above orbital plane
View from above orbital plane
View from above satellite
View from above satellite

Ground track
Ground track

The orbit data is extracted from the following two-line orbital elements,

1 15755U 85042A   16037.21107579  .00000053  00000-0  46396-4 0  9991
2 15755  71.1135 330.2822 0033121 104.3302 256.1505 14.20382661590120
Epoch (UTC): 06 February 2016 05:03:56
Eccentricity: 0.0033121
inclination: 71.1135°
perigee height: 800 km
apogee height: 848 km
right ascension of ascending node: 330.2822°
argument of perigee: 104.3302°
revolutions per day: 14.20382661
mean anomaly at epoch: 256.1505°
orbit number at epoch: 59012

The dashed part of the orbit path shows where the satellite is in the earth's shadow,  

DLR